Change the Weather History Date:

Tuesday, April 8, 2014

  Actual Average Record
Temperature  
Mean Temperature 51 °F -  
Max Temperature 58 °F 58 °F 82 °F (1999)
Min Temperature 43 °F 38 °F 26 °F (2007)
Degree Days  
Heating Degree Days 14    
Month to date heating degree days 128  
Moisture  
Dew Point 40 °F    
Average Humidity 72    
Maximum Humidity 100    
Minimum Humidity 43    
Precipitation  
Precipitation 0.00 in - - ()
Month to date precipitation 0.41  
Year to date precipitation 5.86  
Sea Level Pressure  
Sea Level Pressure 29.59 in    
Wind  
Wind Speed 11 mph (West)    
Max Wind Speed 29 mph    
Max Gust Speed 36 mph    
Visibility 6 miles    
Events Fog    
Averages and records for this station are not official NWS values.
T = Trace of Precipitation, MM = Missing Value Source: NWS Daily Summary

Daily Weather History Graph

Daily Weather History Graph

Search for Another Location

Airport or City:

Trip Planner

Search our weather history database for the weather conditions in past years. The results will help you decide how hot, cold, wet, or windy it might be!

Date:

Astronomy

Apr. 08, 2014 Rise Set
Actual Time 6:44 AM EDT 7:42 PM EDT
Civil Twilight 6:16 AM EDT 8:09 PM EDT
Nautical Twilight 5:43 AM EDT 8:42 PM EDT
Astronomical Twilight 5:10 AM EDT 9:16 PM EDT
Moon 1:34 PM EDT (4/8) 2:54 AM EDT (4/8)
Length of Visible Light 13h 52m
Length of Day
12h 57m
Waxing Gibbous, 62% of the Moon is Illuminated
Apr 8
Waxing Gibbous
Apr 15
Full
Apr 22
Last Quarter
Apr 29
New
May 6
First Quarter

Hourly Weather History & Observations

Time (EDT) Temp. Windchill Dew Point Humidity Pressure Visibility Wind Dir Wind Speed Gust Speed Precip Events Conditions
12:03 AM 42.1 °F - 41.0 °F 96% 29.57 in 0.2 mi Calm Calm - N/A Fog Fog
12:53 AM 43.0 °F - 43.0 °F 100% 29.60 in 0.5 mi Calm Calm - N/A Fog Fog
1:11 AM 44.1 °F 41.5 °F 43.0 °F 96% 29.55 in 1.8 mi South 4.6 mph - N/A   Overcast
1:18 AM 44.1 °F 40.8 °F 43.0 °F 96% 29.55 in 2.5 mi Variable 5.8 mph - N/A   Overcast
1:29 AM 44.1 °F 42.5 °F 43.0 °F 96% 29.54 in 3.0 mi Variable 3.5 mph - N/A   Overcast
1:41 AM 45.0 °F 40.1 °F 44.1 °F 97% 29.54 in 5.0 mi South 9.2 mph - N/A   Overcast
1:53 AM 45.0 °F 40.1 °F 44.1 °F 97% 29.57 in 8.0 mi South 9.2 mph - N/A   Overcast
2:53 AM 45.0 °F 40.1 °F 44.1 °F 97% 29.53 in 7.0 mi South 9.2 mph - N/A   Overcast
3:04 AM 46.0 °F 40.6 °F 44.1 °F 93% 29.49 in 7.0 mi South 11.5 mph - N/A   Overcast
3:53 AM 46.0 °F 41.0 °F 45.0 °F 96% 29.50 in 5.0 mi South 10.4 mph - N/A   Overcast
4:44 AM 45.0 °F 41.8 °F 45.0 °F 100% 29.48 in 1.5 mi WNW 5.8 mph - N/A   Overcast
4:53 AM 44.1 °F 40.1 °F 43.0 °F 96% 29.52 in 0.2 mi NW 6.9 mph - N/A Fog Fog
5:53 AM 44.1 °F - 43.0 °F 96% 29.51 in 0.2 mi Calm Calm - N/A Fog Fog
6:53 AM 44.1 °F - 44.1 °F 100% 29.50 in 0.2 mi Calm Calm - N/A Fog Fog
7:53 AM 45.0 °F 43.5 °F 45.0 °F 100% 29.53 in 0.2 mi SSW 3.5 mph - N/A Fog Fog
8:35 AM 46.0 °F 39.9 °F 45.0 °F 96% 29.51 in 0.5 mi West 13.8 mph 18.4 mph N/A Fog Fog
8:39 AM 46.0 °F 41.9 °F 45.0 °F 96% 29.51 in 2.0 mi WSW 8.1 mph 18.4 mph N/A   Mostly Cloudy
8:53 AM 46.9 °F - 45.0 °F 93% 29.56 in 2.0 mi WSW 10.4 mph 20.7 mph N/A   Partly Cloudy
9:00 AM 46.9 °F - 45.0 °F 93% 29.52 in 6.0 mi West 15.0 mph 20.7 mph N/A   Partly Cloudy
9:53 AM 54.0 °F - 41.0 °F 62% 29.57 in 10.0 mi West 16.1 mph 26.5 mph N/A   Overcast
10:53 AM 55.0 °F - 37.9 °F 53% 29.58 in 10.0 mi West 19.6 mph 26.5 mph N/A   Overcast
11:53 AM 54.0 °F - 37.0 °F 53% 29.60 in 10.0 mi West 21.9 mph 32.2 mph N/A   Overcast
12:53 PM 54.0 °F - 37.0 °F 53% 29.62 in 10.0 mi WNW 19.6 mph 27.6 mph N/A   Overcast
1:53 PM 55.9 °F - 37.9 °F 51% 29.63 in 10.0 mi West 23.0 mph - N/A   Overcast
2:53 PM 55.0 °F - 37.0 °F 51% 29.63 in 10.0 mi WNW 18.4 mph 23.0 mph N/A   Mostly Cloudy
3:53 PM 55.9 °F - 36.0 °F 47% 29.64 in 10.0 mi WNW 12.7 mph - N/A   Mostly Cloudy
4:53 PM 57.9 °F - 36.0 °F 44% 29.64 in 10.0 mi WNW 10.4 mph - N/A   Mostly Cloudy
5:53 PM 57.9 °F - 36.0 °F 44% 29.66 in 10.0 mi WNW 9.2 mph - N/A   Scattered Clouds
6:53 PM 57.9 °F - 34.0 °F 41% 29.68 in 10.0 mi NNW 8.1 mph - N/A   Clear
7:53 PM 53.1 °F - 35.1 °F 50% 29.70 in 10.0 mi Calm Calm - N/A   Clear
8:53 PM 52.0 °F - 34.0 °F 50% 29.71 in 10.0 mi NW 3.5 mph - N/A   Clear
9:53 PM 50.0 °F - 33.1 °F 52% 29.73 in 10.0 mi NNW 3.5 mph - N/A   Clear
10:53 PM 48.0 °F - 33.1 °F 56% 29.72 in 10.0 mi Calm Calm - N/A   Clear
11:53 PM 46.9 °F - 33.1 °F 59% 29.72 in 10.0 mi Calm Calm - N/A   Clear